This demonstration page uses our WeatherBlox Daily Observations layout. Learn more.

Left ArrowRight Arrow

38.80484, -77.04692

Hourly Observations for April 30, 2016

Temp ( °F °C ) Dew Point ( °F °C ) Humidity (%) Winds ( mph kmh ) Pressure ( in mb ) Visibility ( mi km ) Precip ( " mm )
12:00 am 00:00 Cloudy 54 12 50 10 88 88 ENE 7 11 30.12 1020 10 16 0.00 0.00
12:09 am 00:09 Cloudy 53 11.7 50 10 89 89 ENE 6 9 30.12 1020 10 16 0.00 0.00
12:52 am 00:52 Cloudy 53 11.7 50 10 89 89 ENE 8 13 30.13 1020 10 16 0.00 0.00
1:43 am 01:43 Cloudy 52 11.1 50 10 93 93 ESE 5 7 30.12 1020 10 16 0.00 0.00
1:52 am 01:52 Cloudy 52 11.1 50 10 93 93 ENE 6 9 30.13 1020 10 16 0.00 0.00
2:52 am 02:52 Cloudy 52 11.1 50 10 93 93 ENE 8 13 30.13 1020 10 16 0.00 0.00
3:10 am 03:10 Cloudy 54 12 50 10 88 88 E 7 11 30.12 1020 10 16 0.00 0.00
3:52 am 03:52 Cloudy 52 11.1 49 9.4 89 89 NE 6 9 30.13 1020 10 16 0.00 0.00
4:34 am 04:34 Cloudy 52 11 48 9 88 88 E 7 11 30.15 1021 10 16 0.00 0.00
4:48 am 04:48 Cloudy 52 11 48 9 88 88 ENE 9 15 30.15 1021 10 16 0.00 0.00
4:52 am 04:52 Cloudy 52 11.1 49 9.4 89 89 ENE 9 15 30.14 1021 9 14 0.00 0.00
5:24 am 05:24 Cloudy 52 11 48 9 88 88 ENE 7 11 30.15 1021 10 16 0.00 0.00
5:39 am 05:39 Cloudy 52 11.1 49 9.4 89 89 ENE 8 13 30.15 1021 10 16 0.00 0.00
5:52 am 05:52 Cloudy 52 11.1 49 9.4 89 89 E 8 13 30.15 1021 9 14 0.00 0.00
5:56 am 05:56 Cloudy with Mist and Fog 52 11 48 9 88 88 ENE 9 15 30.15 1021 5 8 0.00 0.00
6:29 am 06:29 Cloudy with Mist and Fog 52 11.1 49 9.4 89 89 E 9 15 30.15 1021 5 8 0.00 0.00
6:41 am 06:41 Cloudy 52 11.1 48 8.9 86 86 ENE 10 17 30.18 1022 7 11 0.00 0.00
6:52 am 06:52 Cloudy 51 10.6 48 8.9 89 89 E 9 15 30.17 1022 7 11 0.00 0.00
7:29 am 07:29 Cloudy 51 10.6 47 8.3 86 86 ENE 9 15 30.18 1022 9 14 0.00 0.00
7:52 am 07:52 Cloudy 51 10.6 47 8.3 86 86 ENE 8 13 30.19 1022 10 16 0.00 0.00
8:39 am 08:39 Cloudy 52 11.1 46 7.8 80 80 ENE 8 13 30.21 1023 10 16 0.00 0.00
8:52 am 08:52 Cloudy 52 11.1 46 7.8 80 80 ENE 8 13 30.20 1023 10 16 0.00 0.00
9:15 am 09:15 Cloudy 52 11.1 46 7.8 80 80 ENE 7 11 30.21 1023 10 16 0.00 0.00
9:52 am 09:52 Cloudy 53 11.7 47 8.3 80 80 ENE 7 11 30.21 1023 10 16 0.00 0.00
10:28 am 10:28 Cloudy 54 12 46 8 77 77 NE 6 9 30.21 1023 10 16 0.00 0.00
10:52 am 10:52 Cloudy 53 11.7 47 8.3 80 80 ENE 8 13 30.20 1023 10 16 0.00 0.00
11:52 am 11:52 Cloudy 54 12.2 47 8.3 77 77 ENE 6 9 30.22 1023 10 16 0.00 0.00
12:52 pm 12:52 Cloudy 55 12.8 47 8.3 74 74 Calm 30.22 1024 10 16 0.00 0.00
1:52 pm 13:52 Cloudy 56 13.3 47 8.3 72 72 Calm 30.22 1023 10 16 0.00 0.00
2:52 pm 14:52 Cloudy 58 14.4 48 8.9 70 70 Calm 30.20 1023 10 16 0.00 0.00
3:13 pm 15:13 Cloudy 58 14.4 47 8.3 67 67 Calm 30.21 1023 10 16 0.00 0.00
3:42 pm 15:42 Cloudy 57 14 48 9 72 72 VRB 5 7 30.21 1023 10 16 0.00 0.00
3:52 pm 15:52 Cloudy 57 13.9 48 8.9 72 72 ESE 7 11 30.20 1023 10 16 0.00 0.00
4:39 pm 16:39 Cloudy 57 13.9 48 8.9 72 72 SSE 6 9 30.21 1023 10 16 0.00 0.00
4:52 pm 16:52 Cloudy 57 13.9 49 9.4 74 74 SE 7 11 30.20 1023 10 16 0.00 0.00
5:52 pm 17:52 Cloudy 57 13.9 48 8.9 72 72 S 5 7 30.22 1023 10 16 0.00 0.00
6:52 pm 18:52 Cloudy 57 13.9 49 9.4 74 74 SE 7 11 30.20 1023 10 16 0.00 0.00
7:52 pm 19:52 Cloudy 56 13.3 48 8.9 75 75 ESE 7 11 30.20 1023 10 16 0.00 0.00
8:25 pm 20:25 Cloudy with Light Rain 56 13.3 48 8.9 75 75 SSE 6 9 30.21 1023 10 16 0.00 0.03
8:52 pm 20:52 Cloudy with Light Rain 55 12.8 49 9.4 80 80 SSE 6 9 30.21 1023 10 16 0.00 0.03
9:52 pm 21:52 Cloudy with Light Rain 55 12.8 50 10 83 83 SSE 5 7 30.22 1023 10 16 0.01 0.25
10:52 pm 22:52 Cloudy 54 12.2 50 10 87 87 SSE 7 11 30.21 1023 10 16 0.01 0.25
11:52 pm 23:52 Cloudy with Light Rain 54 12.2 51 10.6 90 90 SE 5 7 30.19 1022 10 16 0.00 0.03

Powered by AerisWeather